Location: *
(37.5724°S, 58.0067°E)
Time: 10:08:58
(UTC+00:00)

Lacrosse 5 - Pass Details

Date: 18 January 2021
Orbit: 715 x 724 km, 57.0° (Epoch: 22 February)

Event Time Altitude Azimuth Distance (km) Brightness Sun altitude
Exits shadow 21:37:07 26° 234° (SW) 1,427 3.5 -29.2°
Maximum altitude 21:38:02 27° 216° (SW) 1,380 3.5 -29.1°
Drops below altitude 10° 21:42:26 10° 157° (SSE) 2,243 5.4 -28.8°
Sets 21:45:11 0° 145° (SE) 3,170 6.4 -28.6°
